• In Germany
  • List of Countries
  • For 7 days
  • Water Temperature
  • Satellite Maps
  • Weather Map
  • Weather Widgets
  • user-avatar
    Login

    Hourly Weather Salzburg

    Today, 29 May, Monday

    Time Temperature Precipitation Wind Pressure Humidity
    00:00 +7°C° 0 mm 1 mps 628 mmHg 82%
    01:00 +6°C° 0 mm 2 mps 628 mmHg 78%
    02:00 +6°C° 0 mm 2 mps 628 mmHg 77%
    03:00 +6°C° 0 mm 2 mps 627 mmHg 76%
    04:00 +5°C° 0 mm 2 mps 627 mmHg 75%
    05:00 +9°C° 0 mm 1 mps 628 mmHg 71%
    06:00 +11°C° 0 mm 1 mps 629 mmHg 66%
    07:00 +14°C° 0 mm 1 mps 630 mmHg 62%
    08:00 +16°C° 0 mm 1 mps 630 mmHg 55%
    09:00 +19°C° 0 mm 1 mps 631 mmHg 48%
    10:00 +19°C° 0 mm 0 mps 632 mmHg 41%
    11:00 +22°C° 0 mm 1 mps 632 mmHg 40%
    12:00 +22°C° 0 mm 1 mps 631 mmHg 40%
    13:00 +23°C° 0 mm 1 mps 631 mmHg 39%
    14:00 +22°C° 0.1 mm 1 mps 631 mmHg 42%
    15:00 +22°C° 0.1 mm 1 mps 631 mmHg 46%
    16:00 +21°C° 0.1 mm 1 mps 630 mmHg 49%
    17:00 +20°C° 0.2 mm 1 mps 629 mmHg 60%
    18:00 +18°C° 0.2 mm 1 mps 628 mmHg 71%
    19:00 +15°C° 0.2 mm 1 mps 628 mmHg 82%
    20:00 +12°C° 0.1 mm 1 mps 627 mmHg 85%
    21:00 +10°C° 0.1 mm 1 mps 626 mmHg 88%
    22:00 +8°C° 0.1 mm 1 mps 625 mmHg 91%
    23:00 +8°C° 0 mm 1 mps 625 mmHg 91%

    Tomorrow, 30 May, Tuesday

    Time Temperature Precipitation Wind Pressure Humidity
    00:00 +8°C° 0 mm 1 mps 625 mmHg 90%
    01:00 +8°C° 0 mm 1 mps 625 mmHg 89%
    02:00 +7°C° 0 mm 1 mps 625 mmHg 89%
    03:00 +7°C° 0 mm 1 mps 625 mmHg 89%
    04:00 +7°C° 0 mm 1 mps 625 mmHg 89%
    05:00 +9°C° 0 mm 1 mps 626 mmHg 85%
    06:00 +12°C° 0 mm 1 mps 627 mmHg 80%
    07:00 +14°C° 0 mm 1 mps 629 mmHg 76%
    08:00 +16°C° 0 mm 1 mps 629 mmHg 70%
    09:00 +18°C° 0 mm 1 mps 630 mmHg 64%
    10:00 +20°C° 0 mm 1 mps 630 mmHg 58%
    11:00 +20°C° 0.3 mm 1 mps 630 mmHg 60%
    12:00 +20°C° 0.3 mm 1 mps 630 mmHg 61%
    13:00 +20°C° 0.3 mm 2 mps 630 mmHg 63%
    14:00 +19°C° 1.5 mm 2 mps 630 mmHg 68%
    15:00 +19°C° 1.5 mm 1 mps 630 mmHg 73%
    16:00 +19°C° 1.5 mm 1 mps 629 mmHg 78%
    17:00 +16°C° 1.5 mm 1 mps 629 mmHg 83%
    18:00 +15°C° 1.5 mm 1 mps 629 mmHg 89%
    19:00 +14°C° 1.5 mm 1 mps 628 mmHg 94%
    20:00 +13°C° 0.8 mm 1 mps 629 mmHg 95%
    21:00 +12°C° 0.8 mm 1 mps 629 mmHg 95%
    22:00 +12°C° 0.8 mm 1 mps 629 mmHg 96%
    23:00 +12°C° 0.5 mm 1 mps 629 mmHg 96%

    Day after tomorrow, 31 May, Wednesday

    Time Temperature Precipitation Wind Pressure Humidity
    00:00 +11°C° 0.5 mm 1 mps 629 mmHg 96%
    01:00 +11°C° 0.5 mm 1 mps 629 mmHg 97%
    02:00 +10°C° 0.1 mm 1 mps 629 mmHg 97%
    03:00 +10°C° 0.1 mm 1 mps 628 mmHg 97%
    04:00 +9°C° 0.1 mm 1 mps 628 mmHg 97%
    05:00 +10°C° 0 mm 1 mps 629 mmHg 95%
    06:00 +11°C° 0 mm 1 mps 629 mmHg 93%
    07:00 +13°C° 0 mm 1 mps 630 mmHg 92%
    08:00 +14°C° 0.1 mm 1 mps 630 mmHg 86%
    09:00 +15°C° 0.1 mm 1 mps 631 mmHg 80%
    10:00 +16°C° 0.1 mm 1 mps 631 mmHg 75%
    11:00 +16°C° 0.6 mm 1 mps 631 mmHg 75%
    12:00 +18°C° 0.6 mm 1 mps 631 mmHg 75%
    13:00 +18°C° 0.6 mm 1 mps 631 mmHg 76%
    14:00 +18°C° 0.8 mm 1 mps 631 mmHg 77%
    15:00 +18°C° 0.8 mm 1 mps 631 mmHg 78%
    16:00 +18°C° 0.8 mm 1 mps 631 mmHg 79%
    17:00 +16°C° 0.6 mm 1 mps 630 mmHg 84%
    18:00 +15°C° 0.6 mm 1 mps 630 mmHg 89%
    19:00 +14°C° 0.6 mm 1 mps 630 mmHg 94%
    20:00 +12°C° 0.4 mm 1 mps 629 mmHg 95%
    21:00 +9°C° 0.4 mm 0 mps 629 mmHg 96%
    22:00 +7°C° 0.4 mm 0 mps 628 mmHg 98%
    23:00 +7°C° 0.2 mm 0 mps 628 mmHg 98%

    1 June, Thursday

    Time Temperature Precipitation Wind Pressure Humidity
    00:00 +8°C° 0.2 mm 0 mps 628 mmHg 98%
    01:00 +8°C° 0.2 mm 0 mps 628 mmHg 98%
    02:00 +8°C° 0.1 mm 0 mps 628 mmHg 98%
    03:00 +7°C° 0.1 mm 0 mps 628 mmHg 98%
    04:00 +7°C° 0.1 mm 0 mps 628 mmHg 98%
    05:00 +8°C° 0.2 mm 0 mps 628 mmHg 96%
    06:00 +10°C° 0.2 mm 0 mps 629 mmHg 94%
    07:00 +11°C° 0.2 mm 0 mps 630 mmHg 92%
    08:00 +12°C° 0.2 mm 1 mps 630 mmHg 89%
    09:00 +13°C° 0.2 mm 1 mps 630 mmHg 87%
    10:00 +14°C° 0.2 mm 1 mps 630 mmHg 85%
    11:00 +14°C° 0.5 mm 1 mps 630 mmHg 83%
    12:00 +15°C° 0.5 mm 1 mps 630 mmHg 81%
    13:00 +15°C° 0.5 mm 1 mps 630 mmHg 79%
    14:00 +15°C° 0.7 mm 1 mps 630 mmHg 80%
    15:00 +15°C° 0.7 mm 1 mps 630 mmHg 81%
    16:00 +15°C° 0.7 mm 1 mps 630 mmHg 82%
    17:00 +14°C° 0.7 mm 1 mps 630 mmHg 86%
    18:00 +13°C° 0.7 mm 1 mps 630 mmHg 90%
    19:00 +13°C° 0.7 mm 1 mps 629 mmHg 94%
    20:00 +10°C° 0.6 mm 0 mps 629 mmHg 95%
    21:00 +8°C° 0.6 mm 0 mps 629 mmHg 96%
    22:00 +7°C° 0.6 mm 0 mps 628 mmHg 97%
    23:00 +7°C° 0.7 mm 0 mps 628 mmHg 97%

    2 June, Friday

    Time Temperature Precipitation Wind Pressure Humidity
    00:00 +7°C° 0.7 mm 0 mps 628 mmHg 97%
    01:00 +7°C° 0.7 mm 0 mps 628 mmHg 97%
    02:00 +6°C° 0.4 mm 0 mps 628 mmHg 97%
    03:00 +6°C° 0.4 mm 0 mps 628 mmHg 97%
    04:00 +6°C° 0.4 mm 0 mps 627 mmHg 97%
    05:00 +7°C° 0.1 mm 0 mps 628 mmHg 94%
    06:00 +9°C° 0.1 mm 0 mps 629 mmHg 92%
    07:00 +11°C° 0.1 mm 0 mps 630 mmHg 89%
    08:00 +12°C° 0.2 mm 0 mps 630 mmHg 84%
    09:00 +13°C° 0.2 mm 0 mps 631 mmHg 79%
    10:00 +16°C° 0.2 mm 1 mps 631 mmHg 74%
    11:00 +16°C° 0.7 mm 1 mps 631 mmHg 75%
    12:00 +16°C° 0.7 mm 1 mps 631 mmHg 76%
    13:00 +16°C° 0.7 mm 1 mps 631 mmHg 77%
    14:00 +16°C° 0.9 mm 1 mps 630 mmHg 77%
    15:00 +16°C° 0.9 mm 1 mps 630 mmHg 78%
    16:00 +16°C° 0.9 mm 1 mps 630 mmHg 78%
    17:00 +15°C° 0.6 mm 1 mps 630 mmHg 83%
    18:00 +14°C° 0.6 mm 1 mps 630 mmHg 87%
    19:00 +13°C° 0.6 mm 0 mps 629 mmHg 92%
    20:00 +10°C° 0.1 mm 0 mps 628 mmHg 93%
    21:00 +8°C° 0.1 mm 0 mps 628 mmHg 95%
    22:00 +5°C° 0.1 mm 0 mps 627 mmHg 97%
    23:00 +7°C° 0 mm 1 mps 627 mmHg 96%

    3 June, Saturday

    Time Temperature Precipitation Wind Pressure Humidity
    00:00 +7°C° 0 mm 1 mps 627 mmHg 96%
    01:00 +7°C° 0 mm 1 mps 627 mmHg 95%
    02:00 +7°C° 0 mm 1 mps 627 mmHg 95%
    03:00 +7°C° 0 mm 1 mps 627 mmHg 95%
    04:00 +7°C° 0 mm 1 mps 627 mmHg 94%
    05:00 +9°C° 0 mm 1 mps 627 mmHg 91%
    06:00 +11°C° 0 mm 1 mps 628 mmHg 87%
    07:00 +13°C° 0 mm 1 mps 629 mmHg 84%
    08:00 +15°C° 0 mm 1 mps 630 mmHg 74%
    09:00 +18°C° 0 mm 1 mps 631 mmHg 63%
    10:00 +20°C° 0 mm 1 mps 631 mmHg 53%
    11:00 +21°C° 0.1 mm 1 mps 631 mmHg 53%
    12:00 +21°C° 0.1 mm 1 mps 631 mmHg 54%
    13:00 +21°C° 0.1 mm 2 mps 631 mmHg 54%
    14:00 +20°C° 0.4 mm 2 mps 631 mmHg 59%
    15:00 +20°C° 0.4 mm 2 mps 630 mmHg 64%
    16:00 +20°C° 0.4 mm 2 mps 630 mmHg 69%
    17:00 +18°C° 0.4 mm 2 mps 629 mmHg 75%
    18:00 +18°C° 0.4 mm 1 mps 629 mmHg 81%
    19:00 +16°C° 0.4 mm 1 mps 629 mmHg 87%
    20:00 +14°C° 0 mm 1 mps 628 mmHg 89%
    21:00 +13°C° 0 mm 1 mps 628 mmHg 91%
    22:00 +10°C° 0 mm 2 mps 628 mmHg 94%
    23:00 +10°C° 0 mm 2 mps 627 mmHg 93%
    Show more